NOAA 16 DEB, 41207

Orbit data source: Space-Track

NOAA 16 DEB, 41207 is space debris in SSO originally from a launch on Thu, 21 Sep 2000 UTC launched from the Air Force Western Test Range (AFWTR). Debris objects in space refer to the collection of defunct objects orbiting the Earth. Examples of debris include non-operational satellites, rocket bodies, and fragments generated from explosions, collisions, or faulty payload assembly.

Loading next visibility...
Identifier
41207, 2000-055DL
Orbit
SSO
Country
Flag of USUS
Related business
Manufacturer
Unknown
Mission
Spacecraft
Bus & Motor
Unknown
Mass
Unknown
Launch date (UTC)
2000-09-21 (26 years ago)
Launch vehicle
Unknown
Launch site
Air Force Western Test Range (AFWTR)
Object type
Payload
Rocket body
Debris
Shape & HBR
Unknown shape, 0.1 m
Radar Cross Section
Medium (>0.1 m² and <1 m²)

Expand to show TLE details & history
Last TLE update: 2 days ago

TLE from 2 days ago
0 NOAA 16 DEB
1 41207U 00055DL  26171.20208720  .00016906  00000-0  20969-2 0  9992
2 41207  98.9012  77.3718 0027531 247.5714 112.2579 14.82465192552940
Epoch: 2026-06-20T04:51Z
TLE epoch observation values (Epoch: 2026-06-20T04:51:00.334Z)
Latitude
-0.00004°
Longitude
96.20032°
Altitude
631.893 km
Speed
7.538 km/s
True Right ascension
05h 09m 29s
True Declination
0° 00' 00"
Sunlit
Object was in daylight at epoch
Visualization orbit readout
Latitude
Unknown
Longitude
Unknown
Altitude
Unknown
Speed
Unknown
Apparent Right ascension
Unknown
Apparent Declination
Unknown
Sunlit
N/A
Visualization observer readout
Local Sidereal Time
23:18:48
Azimuth
Unknown
Elevation
Unknown
Doppler factor
Unknown
Orbital elements
Apogee altitude
637.901 km
Perigee altitude
599.376 km
Semi-major axis
6,996.776 km
Eccentricity
0.00275
Inclination
98.9012°
RAAN
77.3718°
Arg. of periapsis
247.5714°
True anomaly
112.54949°
Mean anomaly
112.2579°
Eccentric anomaly
112.40373°
Mean motion
3.70848 °/min
Orbital period
97.07 mins
BSTAR
0.0020969
Loading maneuver chart data...
Computing Atmospheric mass density...
Loading historical data...
Loading historical data...
Loading historical data...
Loading historical data...
Loading historical data...
Loading historical data...
Loading historical data...

Documentation

Showing up to 5 results
|